This is the latest recevied weather packets stored in our database for station/object DG8SF-13. If no packets are shown the sender has not sent any weather packets the latest 10 day(s).
| Time | Temp. | Humidity | Pressure | Rain* | Wind** | Luminosity | Snow |
|---|---|---|---|---|---|---|---|
| 1778157245 | 13.89° C | 74% | 1013.9 hPa | 0 mm | - | - | - |
| 1778156935 | 13.89° C | 73% | 1013.8 hPa | 0 mm | - | - | - |
| 1778156621 | 13.89° C | 76% | 1013.8 hPa | 0 mm | - | - | - |
| 1778156309 | 13.33° C | 78% | 1013.8 hPa | 0 mm | - | - | - |
| 1778155996 | 13.33° C | 78% | 1013.6 hPa | 0 mm | - | - | - |
| 1778155687 | 12.78° C | 78% | 1013.8 hPa | 0 mm | - | - | - |
| 1778155374 | 12.78° C | 77% | 1013.9 hPa | 0 mm | - | - | - |
| 1778155062 | 12.78° C | 74% | 1013.9 hPa | 0 mm | - | - | - |
| 1778154749 | 13.33° C | 68% | 1013.9 hPa | 0 mm | - | - | - |
| 1778154438 | 13.33° C | 69% | 1013.8 hPa | 0 mm | - | - | - |
| 1778154124 | 13.89° C | 68% | 1013.9 hPa | 0 mm | - | - | - |
| 1778153815 | 13.89° C | 69% | 1013.9 hPa | 0 mm | - | - | - |
| 1778153500 | 13.33° C | 72% | 1013.8 hPa | 0 mm | - | - | - |
| 1778153190 | 13.33° C | 71% | 1013.9 hPa | 0 mm | - | - | - |
| 1778152877 | 13.33° C | 67% | 1013.9 hPa | 0 mm | - | - | - |
| 1778152565 | 13.33° C | 69% | 1013.9 hPa | 0 mm | - | - | - |
| 1778152253 | 13.89° C | 68% | 1013.8 hPa | 0 mm | - | - | - |
| 1778151941 | 14.44° C | 70% | 1013.8 hPa | 0 mm | - | - | - |
| 1778151629 | 13.89° C | 68% | 1013.8 hPa | 0 mm | - | - | - |
| 1778151317 | 13.89° C | 72% | 1013.8 hPa | 0 mm | - | - | - |
| 1778151004 | 13.33° C | 73% | 1013.9 hPa | 0 mm | - | - | - |
| 1778150694 | 13.33° C | 71% | 1014 hPa | 0 mm | - | - | - |
| 1778150380 | 13.33° C | 71% | 1013.9 hPa | 0 mm | - | - | - |
| 1778150071 | 14.44° C | 68% | 1013.9 hPa | 0 mm | - | - | - |
| 1778149756 | 13.89° C | 69% | 1013.9 hPa | 0 mm | - | - | - |
* Rain latest hour (hover to see other rain measurements)
** Current wind speed in m/s (hover to see current wind gust speed)